User: anonymous   Login
Location: Clyde
(45.1830°S, 169.3170°E)
Time: 05:20:04
(UTC+13:00)
Language:

Helios 1B rocket - Orbit

View from above orbital plane
View from above orbital plane
View from above satellite
View from above satellite

Ground track
Ground track

The orbit data is extracted from the following two-line orbital elements,

1 25979U 99064C   19292.83685212  .00000132  00000-0  17516-4 0  9998
2 25979  98.1487 196.2566 0007083  22.8631 337.2903 14.95823347 77924
Epoch (UTC): 19 October 2019 20:05:04
Eccentricity: 0.0007083
inclination: 98.1487°
perigee height: 575 km
apogee height: 585 km
right ascension of ascending node: 196.2566°
argument of perigee: 22.8631°
revolutions per day: 14.95823347
mean anomaly at epoch: 337.2903°
orbit number at epoch: 7792

The dashed part of the orbit path shows where the satellite is in the earth's shadow,  

DLR